星链-35980(STARLINK-35980)

导读 | 豆包AI

STARLINK-35980是美国太空探索技术公司SpaceX星链星座计划的卫星,于2025年11月22日由美国发射升空。星链项目旨在搭建全球卫星互联网,为全球提供高速宽带服务,STARLINK-35980的入轨进一步扩充了星链低轨卫星星座的规模,助力项目部署进程。

基本信息
目录编号:
66600
目录名称:
STARLINK-35980
国际标识:
2025-270N
轨道中心:
EARTH
卫星名称:
星链-35980
卫星全名:
星链-35980(STARLINK-35980)
卫星状态:
在轨 (已飞行133 天)
发射日期:
2025-11-22 UTC
国别 :
美国 (US)
星等 :
--
轨道信息
数据来源 国际轨道数据
星历时间: 2026-04-04T03:20:29+0800
9小时前
查看轨道信息
半长轴: 6861.016km
偏心率: 0.0003947
轨道倾角: 43.004°
近地点辐角 255.961°
升交点赤经 274.632°
平近点角 104.080°
近地点: 480.17km
远地点: 485.588km
周期: 94.263分钟
每日圈数: 15.276369
详细信息
固有亮度:
5
最大亮度:
2.5
卫星平台:
Starlink V1.0
覆盖范围:
全球
运营商:
太空探索技术公司
运营商所在国:
美国
制造商(研发单位):
太空探索技术公司
制造商所在国:
美国
使用方式:
暂无
卫星简介
Starlink 计划是 SpaceX 推出的全球卫星互联网项目,通过发射低轨道卫星,为全球尤其是偏远地区提供高速、低延迟的互联网服务。自 2019 年起,Starlink 已部署数千颗卫星,旨在缩小全球数字鸿沟,推动互联网普及。该项目还为军事、航空等行业提供通信支持,带来广泛经济效益。
2D轨道图
3D轨道图
轨道高度分析图
轨道倾角分析图
轨道综合分析图
查看轨道综合分析图